This is the latest recevied weather packets stored in our database for station/object VA5EVR-13. If no packets are shown the sender has not sent any weather packets the latest 1 day(s).
| Time | Temp. | Humidity | Pressure | Rain* | Wind** | Luminosity | Snow |
|---|---|---|---|---|---|---|---|
| 1778113812 | 12.78° C | 26% | 88.8 hPa | 0 mm | - | - | - |
| 1778113212 | 12.22° C | 26% | 88.8 hPa | 0 mm | - | - | - |
| 1778112611 | 11.67° C | 27% | 88.8 hPa | 0 mm | - | - | - |
| 1778111413 | 11.11° C | 26% | 88.8 hPa | 0 mm | - | - | - |
| 1778110811 | 10.56° C | 26% | 88.8 hPa | 0 mm | - | - | - |
| 1778109612 | 11.11° C | 25% | 88.8 hPa | 0 mm | - | - | - |
| 1778107812 | 11.11° C | 26% | 88.8 hPa | 0 mm | - | - | - |
| 1778106012 | 10.56° C | 26% | 88.8 hPa | 0 mm | - | - | - |
| 1778102412 | 10.56° C | 25% | 88.8 hPa | 0 mm | - | - | - |
| 1778101812 | 10.56° C | 27% | 88.8 hPa | 0 mm | - | - | - |
| 1778099412 | 10.56° C | 27% | 88.8 hPa | 0 mm | - | - | - |
| 1778098813 | 10° C | 27% | 88.8 hPa | 0 mm | - | - | - |
| 1778096412 | 9.44° C | 28% | 88.8 hPa | 0 mm | - | - | - |
| 1778095212 | 9.44° C | 30% | 88.8 hPa | 0 mm | - | - | - |
| 1778089212 | 7.78° C | 32% | 88.8 hPa | 0 mm | - | - | - |
| 1778087411 | 7.78° C | 33% | 88.8 hPa | 0 mm | - | - | - |
| 1778085612 | 7.22° C | 34% | 88.8 hPa | 0 mm | - | - | - |
| 1778081412 | 8.33° C | 36% | 88.8 hPa | 0 mm | - | - | - |
| 1778080813 | 9.44° C | 36% | 88.8 hPa | 0 mm | - | - | - |
| 1778080212 | 10° C | 36% | 88.8 hPa | 0 mm | - | - | - |
| 1778076612 | 8.33° C | 42% | 88.8 hPa | 0 mm | - | - | - |
| 1778076017 | 7.78° C | 45% | 88.8 hPa | 0 mm | - | - | - |
| 1778075412 | 6.67° C | 45% | 88.8 hPa | 0 mm | - | - | - |
| 1778074812 | 6.11° C | 46% | 88.8 hPa | 0 mm | - | - | - |
| 1778074212 | 4.44° C | 47% | 88.8 hPa | 0 mm | - | - | - |
* Rain latest hour (hover to see other rain measurements)
** Current wind speed in m/s (hover to see current wind gust speed)